CW9792 Weather Reports


time (UTC)temp
F
wind
direction
speed
knots
gust
knots
rain 1hr
in
rain 24hr
in
rain mn
in
humidity
%
barometer
mb
20260510093008 63 250 0.0 0.0 0.00 0.00 0.00 46 1012.3
20260510092508 63 250 0.0 0.0 0.00 0.00 0.00 46 1012.2
20260510092006 63 243 0.0 0.0 0.00 0.00 0.00 47 1012.1
20260510091508 63 266 0.0 0.0 0.00 0.00 0.00 46 1012.1
20260510091008 64 230 0.0 0.0 0.00 0.00 0.00 46 1011.7
20260510090505 64 230 0.0 0.0 0.00 0.00 0.00 46 1011.6
20260510090006 64 221 0.0 0.0 0.00 0.00 0.00 45 1011.6
20260510085504 65 232 0.0 0.0 0.00 0.00 0.00 44 1011.5
20260510085003 65 259 0.0 0.0 0.00 0.00 0.00 43 1011.5
20260510084506 65 241 0.0 0.0 0.00 0.00 0.00 43 1011.4
20260510084003 65 255 0.0 0.0 0.00 0.00 0.00 44 1011.4
20260510083503 65 232 0.0 0.0 0.00 0.00 0.00 44 1011.4
20260510083002 65 246 0.0 0.0 0.00 0.00 0.00 45 1011.5
20260510082503 64 232 0.0 0.0 0.00 0.00 0.00 46 1011.4
20260510082002 64 242 0.0 0.0 0.00 0.00 0.00 46 1011.4
20260510081503 64 226 0.0 0.0 0.00 0.00 0.00 46 1011.4
20260510081002 64 228 0.0 0.0 0.00 0.00 0.00 46 1011.4
20260510080501 64 252 0.0 0.0 0.00 0.00 0.00 46 1011.5
20260510080001 64 228 0.0 0.0 0.00 0.00 0.00 46 1011.4
20260510075501 64 244 0.0 0.0 0.00 0.00 0.00 46 1011.3
20260510075100 64 222 0.0 0.0 0.00 0.00 0.00 46 1011.3
20260510074600 64 236 0.0 0.0 0.00 0.00 0.00 47 1011.4
20260510074103 63 238 0.0 0.0 0.00 0.00 0.00 48 1011.2
20260510073558 63 238 0.0 0.0 0.00 0.00 0.00 49 1011.1
20260510073116 62 238 0.0 0.0 0.00 0.00 0.00 49 1011.1
20260510072558 62 210 0.0 0.0 0.00 0.00 0.00 49 1011.1
20260510072059 62 209 0.0 0.0 0.00 0.00 0.00 49 1011.0
20260510071559 63 224 0.0 0.0 0.00 0.00 0.00 49 1011.0
20260510071058 62 216 0.0 0.0 0.00 0.00 0.00 49 1011.1
20260510070558 62 221 0.0 0.0 0.00 0.00 0.00 49 1011.1
20260510070106 62 213 0.0 0.0 0.00 0.00 0.00 49 1011.0
20260510065558 62 207 0.0 0.0 0.00 0.00 0.00 49 1011.0
20260510065057 63 209 0.0 0.0 0.00 0.00 0.00 49 1011.0
20260510064635 63 208 0.0 0.0 0.00 0.00 0.00 49 1011.1
20260510064056 63 227 0.0 0.0 0.00 0.00 0.00 49 1011.1
20260510063558 63 218 0.0 0.0 0.00 0.00 0.00 48 1011.0
20260510063057 63 224 0.0 0.0 0.00 0.00 0.00 48 1010.9
20260510062557 64 221 0.0 0.0 0.00 0.00 0.00 48 1011.0
20260510062056 64 217 0.0 0.0 0.00 0.00 0.00 47 1010.9
20260510061555 64 229 0.0 0.0 0.00 0.00 0.00 47 1010.9
20260510061055 65 229 0.0 0.0 0.00 0.00 0.00 46 1011.0
20260510060600 65 235 0.0 0.0 0.00 0.00 0.00 46 1011.1
20260510060056 65 236 0.0 0.0 0.00 0.00 0.00 46 1011.0
20260510055554 65 240 0.0 0.0 0.00 0.00 0.00 46 1011.1
20260510055053 65 247 0.0 0.0 0.00 0.00 0.00 46 1011.0
20260510054554 65 249 0.0 0.0 0.00 0.00 0.00 46 1011.1
20260510054052 65 255 0.0 0.0 0.00 0.00 0.00 47 1011.2
20260510053550 64 238 0.0 0.0 0.00 0.00 0.00 48 1011.2
20260510053049 64 238 0.0 0.0 0.00 0.00 0.00 48 1011.1
20260510052550 63 232 0.0 0.0 0.00 0.00 0.00 49 1011.2
20260510052050 63 236 0.0 0.0 0.00 0.00 0.00 49 1011.2
20260510051649 64 237 0.0 0.0 0.00 0.00 0.00 49 1011.2
20260510051048 64 232 0.0 0.0 0.00 0.00 0.00 48 1011.2
20260510050548 64 235 0.0 0.0 0.00 0.00 0.00 49 1011.2
20260510050052 63 236 0.0 0.0 0.00 0.00 0.00 49 1011.2
20260510045546 63 232 0.0 0.0 0.00 0.00 0.00 50 1011.2
20260510045045 63 232 0.0 0.0 0.00 0.00 0.00 50 1011.2
20260510044545 63 240 0.0 0.0 0.00 0.00 0.00 50 1011.2
20260510044042 62 225 0.0 0.0 0.00 0.00 0.00 52 1011.1
20260510043543 61 215 0.0 0.0 0.00 0.00 0.00 53 1011.1
20260510043044 61 207 0.0 0.0 0.00 0.00 0.00 53 1011.1
20260510042544 61 210 0.0 0.0 0.00 0.00 0.00 53 1011.2
20260510042040 61 197 0.0 0.0 0.00 0.00 0.00 53 1011.1
20260510041541 62 199 0.0 0.0 0.00 0.00 0.00 53 1011.1
20260510041040 62 202 0.0 0.0 0.00 0.00 0.00 52 1011.1
20260510040539 62 202 0.0 0.0 0.00 0.00 0.00 52 1011.1
20260510040045 62 223 0.0 0.0 0.00 0.00 0.00 52 1011.1
20260510035537 61 218 0.0 0.0 0.00 0.00 0.00 54 1011.1
20260510035041 61 198 0.0 0.0 0.00 0.00 0.00 55 1011.1
20260510034547 61 182 0.0 0.0 0.00 0.00 0.00 55 1011.1
20260510034037 61 182 0.0 0.0 0.00 0.00 0.00 55 1011.2
20260510033543 61 182 0.0 0.0 0.00 0.00 0.00 55 1011.2
20260510033040 61 182 0.0 0.0 0.00 0.00 0.00 55 1011.2
20260510032536 61 184 0.0 0.0 0.00 0.00 0.00 55 1011.2
20260510032036 61 184 0.0 0.0 0.00 0.00 0.00 54 1011.3
20260510031536 61 184 0.0 0.0 0.00 0.00 0.00 54 1011.3
20260510031036 61 184 0.0 0.0 0.00 0.00 0.00 54 1011.3
20260510030536 62 184 0.0 0.0 0.00 0.00 0.00 54 1011.2
20260510030035 62 186 0.0 0.0 0.00 0.00 0.00 53 1011.2
20260510025536 62 186 0.0 0.0 0.00 0.00 0.00 53 1011.3
20260510025035 63 187 0.0 0.0 0.00 0.00 0.00 52 1011.3
20260510024534 63 188 0.0 0.0 0.00 0.00 0.00 51 1011.2
20260510024033 64 188 0.0 0.0 0.00 0.00 0.00 50 1011.1
20260510023532 64 194 0.0 0.0 0.00 0.00 0.00 49 1011.1
20260510023032 64 194 0.0 0.0 0.00 0.00 0.00 48 1011.0
20260510022532 65 194 0.0 0.0 0.00 0.00 0.00 48 1011.0
20260510022031 65 194 0.0 0.0 0.00 0.00 0.00 48 1010.9
20260510021532 65 194 0.0 0.0 0.00 0.00 0.00 48 1010.9
20260510021028 65 194 0.0 0.0 0.00 0.00 0.00 47 1010.7
20260510020528 65 194 0.0 0.0 0.00 0.00 0.00 47 1010.7
20260510020030 66 194 0.0 0.0 0.00 0.00 0.00 46 1010.6
20260510015528 67 194 0.0 0.0 0.00 0.00 0.00 45 1010.5
20260510015025 68 232 0.0 0.0 0.00 0.00 0.00 44 1010.5
20260510014524 68 232 0.0 0.0 0.00 0.00 0.00 43 1010.4
20260510014024 68 232 0.0 0.0 0.00 0.00 0.00 42 1010.3
20260510013526 68 232 0.0 0.0 0.00 0.00 0.00 42 1010.2
20260510013022 69 232 0.0 0.0 0.00 0.00 0.00 41 1010.1
20260510012521 69 232 0.0 0.0 0.00 0.00 0.00 40 1010.0
20260510012023 69 232 0.0 0.0 0.00 0.00 0.00 40 1009.9
20260510011521 69 232 0.0 0.0 0.00 0.00 0.00 40 1009.8
20260510011020 69 232 0.0 0.0 0.00 0.00 0.00 40 1009.8
20260510010520 69 232 0.0 0.0 0.00 0.00 0.00 40 1009.7
20260510010021 70 232 0.0 0.0 0.00 0.00 0.00 39 1009.7
20260510005521 70 232 0.0 0.0 0.00 0.00 0.00 39 1009.6
20260510005022 70 232 0.0 0.0 0.00 0.00 0.00 38 1009.4
20260510004520 71 232 0.0 0.0 0.00 0.00 0.00 38 1009.4
20260510004019 71 232 0.0 0.0 0.00 0.00 0.00 37 1009.3
20260510003520 71 232 0.0 0.0 0.00 0.00 0.00 37 1009.2
20260510003021 71 232 0.0 0.0 0.00 0.00 0.00 37 1009.2
20260510002521 72 227 0.0 0.0 0.00 0.00 0.00 36 1009.1
20260510002019 72 226 0.0 0.0 0.00 0.00 0.00 36 1009.0
20260510001519 72 228 0.0 0.0 0.00 0.00 0.00 36 1009.0
20260510001019 73 224 0.0 0.0 0.00 0.00 0.00 36 1008.9
20260510000519 73 232 0.0 0.0 0.00 0.00 0.00 35 1008.9
20260510000020 73 242 0.0 0.0 0.00 0.00 0.00 35 1008.9
20260509235519 73 229 0.0 0.0 0.00 0.00 0.00 35 1008.9
20260509235017 74 223 0.0 0.0 0.00 0.00 0.00 34 1008.8
20260509234518 74 209 0.0 0.0 0.00 0.00 0.00 33 1008.7
20260509234018 74 227 0.0 0.0 0.00 0.00 0.00 32 1008.8
20260509233517 74 215 0.0 0.0 0.00 0.00 0.00 30 1008.7
20260509233020 74 246 0.0 0.0 0.00 0.00 0.00 30 1008.7
20260509232516 74 238 0.0 0.0 0.00 0.00 0.00 31 1008.8
20260509232016 75 277 0.0 0.0 0.00 0.00 0.00 29 1008.8
20260509231517 75 267 0.0 0.0 0.00 0.00 0.00 29 1008.8
20260509231016 75 280 0.0 0.0 0.00 0.00 0.00 29 1008.8
20260509230516 75 256 0.0 0.0 0.00 0.00 0.00 28 1008.8
20260509230016 75 265 0.0 0.0 0.00 0.00 0.00 29 1008.7
20260509225516 75 263 0.0 0.0 0.00 0.00 0.00 31 1008.6
20260509225019 75 260 0.0 0.0 0.00 0.00 0.00 30 1008.6
20260509224515 76 250 0.0 0.0 0.00 0.00 0.00 29 1008.5
20260509224015 76 228 0.0 0.0 0.00 0.00 0.00 30 1008.5
20260509223514 76 281 0.0 0.0 0.00 0.00 0.00 28 1008.5
20260509223015 76 285 0.0 0.0 0.00 0.00 0.00 30 1008.5
20260509222514 76 284 0.0 0.0 0.00 0.00 0.00 31 1008.5
20260509222014 76 284 0.0 1.7 0.00 0.00 0.00 28 1008.5
20260509221514 76 215 0.0 1.7 0.00 0.00 0.00 28 1008.4
20260509221014 76 262 0.0 0.0 0.00 0.00 0.00 29 1008.4
20260509220513 76 201 0.0 0.0 0.00 0.00 0.00 30 1008.5
20260509220014 76 241 0.0 0.0 0.00 0.00 0.00 29 1008.5
20260509215517 76 273 0.0 0.0 0.00 0.00 0.00 28 1008.4
20260509215013 76 240 0.0 0.0 0.00 0.00 0.00 28 1008.5
20260509214513 76 226 0.0 0.0 0.00 0.00 0.00 28 1008.4
20260509214015 76 290 0.0 0.0 0.00 0.00 0.00 27 1008.5
20260509213512 76 237 0.0 0.9 0.00 0.00 0.00 28 1008.5
20260509213014 76 262 0.0 0.9 0.00 0.00 0.00 26 1008.5
20260509212510 76 238 0.0 0.0 0.00 0.00 0.00 26 1008.5
20260509212013 76 293 0.0 0.0 0.00 0.00 0.00 25 1008.5
20260509211610 76 245 0.0 0.9 0.00 0.00 0.00 30 1008.6
20260509211010 76 213 0.0 0.9 0.00 0.00 0.00 31 1008.5
20260509210511 76 275 0.0 0.0 0.00 0.00 0.00 30 1008.6
20260509210010 75 277 0.0 0.0 0.00 0.00 0.00 29 1008.6
20260509205509 76 253 0.0 0.0 0.00 0.00 0.00 29 1008.6
20260509205008 76 240 0.0 0.0 0.00 0.00 0.00 30 1008.6
20260509204512 76 252 0.0 0.0 0.00 0.00 0.00 32 1008.7
20260509204008 76 199 0.0 4.3 0.00 0.00 0.00 31 1008.7
20260509203511 75 267 0.9 4.3 0.00 0.00 0.00 32 1008.7
20260509203022 75 294 0.0 0.0 0.00 0.00 0.00 29 1008.7
20260509202507 75 297 0.0 0.0 0.00 0.00 0.00 33 1008.8
20260509202007 75 231 0.0 0.9 0.00 0.00 0.00 29 1008.7
20260509201507 76 223 0.0 0.9 0.00 0.00 0.00 29 1008.9
20260509201006 75 223 0.0 0.0 0.00 0.00 0.00 31 1008.9
20260509200510 76 290 0.0 0.0 0.00 0.00 0.00 33 1009.0
20260509200007 76 280 0.0 0.0 0.00 0.00 0.00 29 1009.1
20260509195507 74 248 0.0 0.0 0.00 0.00 0.00 33 1009.1
20260509195005 75 297 0.0 0.9 0.00 0.00 0.00 31 1009.1
20260509194505 77 267 0.0 1.7 0.00 0.00 0.00 32 1009.1
20260509194004 76 182 0.0 1.7 0.00 0.00 0.00 35 1009.1
20260509193507 74 246 0.0 0.9 0.00 0.00 0.00 37 1009.2
20260509193002 75 288 0.0 0.9 0.00 0.00 0.00 32 1009.2
20260509192501 74 294 0.0 0.0 0.00 0.00 0.00 33 1009.2
20260509192105 74 227 0.0 0.0 0.00 0.00 0.00 39 1009.2
20260509191605 73 229 0.0 0.0 0.00 0.00 0.00 36 1009.2
20260509191102 73 289 0.0 0.0 0.00 0.00 0.00 37 1009.1
20260509190600 74 295 0.0 0.0 0.00 0.00 0.00 36 1009.2
20260509190100 74 280 0.0 0.9 0.00 0.00 0.00 36 1009.3
20260509185558 73 294 0.0 0.9 0.00 0.00 0.00 36 1009.2
20260509185058 73 298 0.0 0.0 0.00 0.00 0.00 40 1009.3
20260509184558 72 281 0.0 0.0 0.00 0.00 0.00 37 1009.4
20260509184056 73 254 0.0 0.0 0.00 0.00 0.00 36 1009.4
20260509183556 73 283 0.0 0.9 0.00 0.00 0.00 38 1009.4
20260509183104 73 153 0.0 0.9 0.00 0.00 0.00 40 1009.4
20260509182553 72 315 0.0 0.0 0.00 0.00 0.00 41 1009.4
20260509182053 72 295 0.0 0.0 0.00 0.00 0.00 39 1009.5
20260509181553 72 248 0.0 0.0 0.00 0.00 0.00 40 1009.6
20260509181053 72 252 0.0 0.0 0.00 0.00 0.00 40 1009.5
20260509180555 72 360 0.0 0.0 0.00 0.00 0.00 39 1009.6
20260509180051 71 288 0.0 0.0 0.00 0.00 0.00 39 1009.6
20260509175550 71 295 0.0 0.9 0.00 0.00 0.00 40 1009.6
20260509175053 71 289 0.0 0.9 0.00 0.00 0.00 41 1009.6
20260509174552 71 294 0.0 0.0 0.00 0.00 0.00 44 1009.6
20260509174049 71 254 0.0 0.0 0.00 0.00 0.00 42 1009.6
20260509173548 71 252 0.0 0.0 0.00 0.00 0.00 43 1009.6
20260509173054 71 222 0.0 0.9 0.00 0.00 0.00 43 1009.7
20260509172547 70 337 0.0 0.9 0.00 0.00 0.00 43 1009.6
20260509172046 70 261 0.0 0.0 0.00 0.00 0.00 45 1009.7
20260509171547 70 257 0.0 0.0 0.00 0.00 0.00 46 1009.7
20260509171045 69 261 0.0 0.0 0.00 0.00 0.00 45 1009.8
20260509170545 69 278 0.0 0.0 0.00 0.00 0.00 46 1009.8
20260509170046 69 276 0.0 0.0 0.00 0.00 0.00 45 1009.7
20260509165545 69 294 0.0 0.0 0.00 0.00 0.00 46 1009.8
20260509165044 69 290 0.0 0.9 0.00 0.00 0.00 45 1009.8
20260509164544 69 294 0.0 0.9 0.00 0.00 0.00 48 1009.8
20260509164044 69 290 0.0 0.0 0.00 0.00 0.00 45 1009.9
20260509163543 69 245 0.0 0.9 0.00 0.00 0.00 45 1009.8
20260509163048 68 302 0.0 0.0 0.00 0.00 0.00 48 1009.8
20260509162541 68 288 0.0 0.0 0.00 0.00 0.00 50 1009.7
20260509162043 67 287 0.0 0.0 0.00 0.00 0.00 49 1009.6
20260509161544 67 293 0.0 0.0 0.00 0.00 0.00 50 1009.6
20260509161039 66 296 0.0 0.0 0.00 0.00 0.00 50 1009.6
20260509160539 66 291 0.0 0.9 0.00 0.00 0.00 51 1009.6
20260509160041 66 221 0.0 0.9 0.00 0.00 0.00 51 1009.5
20260509155539 66 329 0.0 0.0 0.00 0.00 0.00 52 1009.3
20260509155037 65 242 0.0 0.0 0.00 0.00 0.00 52 1009.4
20260509154537 66 261 0.0 0.9 0.00 0.00 0.00 52 1009.4
20260509154036 66 303 0.0 0.9 0.00 0.00 0.00 53 1009.4
20260509153537 66 257 0.0 0.0 0.00 0.00 0.00 53 1009.5
20260509153047 66 294 0.0 0.0 0.00 0.00 0.00 52 1009.4
20260509152535 65 252 0.0 0.0 0.00 0.00 0.00 55 1009.3
20260509152035 65 227 0.0 0.0 0.00 0.00 0.00 54 1009.3
20260509151539 64 252 0.0 0.0 0.00 0.00 0.00 55 1009.3
20260509151035 64 210 0.0 3.5 0.00 0.00 0.00 55 1009.2
20260509150536 64 237 0.0 3.5 0.00 0.00 0.00 55 1009.3
20260509150040 64 256 0.0 0.9 0.00 0.00 0.00 57 1009.3
20260509145534 63 213 0.0 0.9 0.00 0.00 0.00 57 1009.2
20260509145030 63 273 0.0 0.0 0.00 0.00 0.00 57 1009.2
20260509144531 63 242 0.0 0.0 0.00 0.00 0.00 57 1009.1
20260509144029 62 248 0.0 0.0 0.00 0.00 0.00 56 1009.2
20260509143528 62 232 0.0 0.0 0.00 0.00 0.00 58 1009.1
20260509143029 62 271 0.0 0.0 0.00 0.00 0.00 58 1009.2
20260509142527 61 240 0.0 0.0 0.00 0.00 0.00 59 1009.2
20260509142027 61 248 0.0 0.0 0.00 0.00 0.00 58 1009.1
20260509141527 61 233 0.0 0.0 0.00 0.00 0.00 59 1009.1
20260509141027 61 221 0.0 0.0 0.00 0.00 0.00 59 1009.2
20260509140526 61 213 0.0 0.0 0.00 0.00 0.00 60 1009.1
20260509140033 60 193 0.0 0.0 0.00 0.00 0.00 59 1009.1
20260509135529 60 219 0.0 0.0 0.00 0.00 0.00 60 1009.1
20260509135025 60 221 0.0 0.0 0.00 0.00 0.00 60 1009.0
20260509134524 59 233 0.0 0.0 0.00 0.00 0.00 61 1009.0
20260509134024 59 240 0.0 0.0 0.00 0.00 0.00 60 1009.1
20260509133524 59 246 0.0 0.0 0.00 0.00 0.00 61 1009.1
20260509133024 59 222 0.0 0.0 0.00 0.00 0.00 60 1009.0
20260509132524 59 206 0.0 0.0 0.00 0.00 0.00 61 1009.0
20260509132023 59 244 0.0 0.0 0.00 0.00 0.00 61 1009.0
20260509131525 58 207 0.0 0.0 0.00 0.00 0.00 61 1009.0
20260509131023 58 213 0.0 0.0 0.00 0.00 0.00 61 1008.9
20260509130524 58 236 0.0 0.0 0.00 0.00 0.00 62 1008.9
20260509130023 58 209 0.0 0.0 0.00 0.00 0.00 62 1009.0
20260509125526 57 218 0.0 0.0 0.00 0.00 0.00 62 1009.0
20260509125023 57 240 0.0 0.0 0.00 0.00 0.00 62 1008.9
20260509124523 57 238 0.0 0.0 0.00 0.00 0.00 62 1008.8
20260509124021 57 236 0.0 0.0 0.00 0.00 0.00 61 1008.9
20260509123521 57 202 0.0 0.0 0.00 0.00 0.00 61 1008.8
20260509123022 57 229 0.0 0.0 0.00 0.00 0.00 61 1008.7
20260509122521 57 242 0.0 0.0 0.00 0.00 0.00 61 1008.6
20260509122023 57 243 0.0 0.0 0.00 0.00 0.00 61 1008.5
20260509121521 57 221 0.0 0.0 0.00 0.00 0.00 61 1008.4
20260509121021 57 206 0.0 0.0 0.00 0.00 0.00 61 1008.5
20260509120521 57 198 0.0 0.0 0.00 0.00 0.00 61 1008.4
20260509120025 57 198 0.0 0.0 0.00 0.00 0.00 60 1008.5
20260509115521 57 198 0.0 0.0 0.00 0.00 0.00 60 1008.4
20260509115019 57 198 0.0 0.0 0.00 0.00 0.00 60 1008.5
20260509114521 57 198 0.0 0.0 0.00 0.00 0.00 60 1008.4
20260509114020 57 198 0.0 0.0 0.00 0.00 0.00 60 1008.3
20260509113519 57 198 0.0 0.0 0.00 0.00 0.00 60 1008.1
20260509113019 57 219 0.0 0.0 0.00 0.00 0.00 60 1008.2
20260509112518 57 227 0.0 0.0 0.00 0.00 0.00 60 1008.1
20260509112018 57 240 0.0 0.0 0.00 0.00 0.00 59 1007.8
20260509111518 57 246 0.0 0.0 0.00 0.00 0.00 59 1007.9
20260509111019 57 234 0.0 0.0 0.00 0.00 0.00 59 1007.8
20260509110518 57 243 0.0 0.9 0.00 0.00 0.00 59 1007.8
20260509110017 58 257 0.0 0.9 0.00 0.00 0.00 58 1008.0
20260509105517 58 232 0.0 0.0 0.00 0.00 0.00 58 1007.8
20260509105018 58 223 0.0 0.0 0.00 0.00 0.00 57 1007.7
20260509104517 58 288 0.0 0.0 0.00 0.00 0.00 58 1008.1
20260509104016 57 244 0.0 0.0 0.00 0.00 0.00 59 1007.7
20260509103516 57 219 0.0 0.0 0.00 0.00 0.00 58 1007.2
20260509103015 57 188 0.0 0.0 0.00 0.00 0.00 58 1006.8
20260509102514 58 188 0.0 0.0 0.00 0.00 0.00 57 1006.8
20260509102015 58 189 0.0 0.0 0.00 0.00 0.00 57 1006.9
20260509101513 58 207 0.0 0.0 0.00 0.00 0.00 57 1006.9
20260509101015 58 219 0.0 0.0 0.00 0.00 0.00 56 1007.2
20260509100511 58 207 0.0 0.0 0.00 0.00 0.00 56 1007.2
20260509100010 59 209 0.0 0.0 0.00 0.00 0.00 56 1007.4
20260509095515 59 203 0.0 0.0 0.00 0.00 0.00 55 1007.5
20260509095007 59 217 0.0 0.0 0.00 0.00 0.00 55 1007.7
20260509094505 59 228 0.0 0.0 0.00 0.00 0.00 55 1007.9
20260509094004 59 238 0.0 0.0 0.00 0.00 0.00 55 1008.0
20260509093504 59 236 0.0 0.0 0.00 0.00 0.00 55 1008.0